Weather History for Nurnberg, Germany

Change the Weather History Date:

Thursday, March 14, 2013

  Actual Average Record
Temperature  
Mean Temperature 24 °F -  
Max Temperature 34 °F 51 °F 62 °F (1999)
Min Temperature 14 °F 34 °F 14 °F (2006)
Degree Days  
Heating Degree Days 41    
Moisture  
Dew Point 19 °F    
Average Humidity 79    
Maximum Humidity 93    
Minimum Humidity 44    
Precipitation  
Precipitation 0.00 in 0.06 in - ()
Sea Level Pressure  
Sea Level Pressure 29.79 in    
Wind  
Wind Speed 3 mph ()    
Max Wind Speed 11 mph    
Max Gust Speed -    
Visibility 7.3 miles    
Events Snow    
Averages and records for this station are not official NWS values.
T = Trace of Precipitation, MM = Missing Value Source: Averaged Metar Reports

Daily Weather History Graph

Daily Weather History Graph

Search for Another Location

Airport:

Trip Planner

Search our weather history database for the weather conditions in past years. The results will help you decide how hot, cold, wet, or windy it might be!

Date:

Astronomy

Mar. 14, 2013 Rise Set
Actual Time 6:31 AM CET 6:19 PM CET
Civil Twilight 5:59 AM CET 6:51 PM CET
Nautical Twilight 5:22 AM CET 7:28 PM CET
Astronomical Twilight 4:44 AM CET 8:06 PM CET
Moon 7:17 AM CET (3/14) 9:40 PM CET (3/14)
Length of Visible Light 12h 51m
Length of Day
11h 47m
Waxing Crescent, 7% of the Moon is Illuminated
Mar 14
Waxing Crescent
Mar 19
First Quarter
Mar 27
Full
Apr 3
Last Quarter
Apr 10
New

Hourly Weather History & Observations

Time (CET) Temp. Windchill Dew Point Humidity Pressure Visibility Wind Dir Wind Speed Gust Speed Precip Events Conditions
12:00 AM 23 °F - 19 °F 80% 29.80 in 8 mi NNW 4.5 mph - -  
12:20 AM 21.2 °F - 17.6 °F 86% 29.71 in - NW 2.3 mph - N/A   Clear
12:50 AM 21.2 °F - 17.6 °F 86% 29.74 in 6.2 mi North 2.3 mph - N/A   Partly Cloudy
1:00 AM 21 °F - 19 °F 88% 29.82 in 8 mi NNW 4.5 mph - -   Partly Cloudy
1:20 AM 21.2 °F - 17.6 °F 86% 29.74 in 6.2 mi NNW 2.3 mph - N/A   Scattered Clouds
1:50 AM 19.4 °F 14.3 °F 17.6 °F 93% 29.74 in 6.2 mi NNW 3.5 mph - N/A   Partly Cloudy
2:00 AM 20 °F - 18 °F 89% 29.83 in 7 mi NNW 2.2 mph - -   Scattered Clouds
2:20 AM 19.4 °F 14.3 °F 17.6 °F 93% 29.74 in 6.2 mi NNW 3.5 mph - N/A   Partly Cloudy
2:50 AM 19.4 °F - 17.6 °F 93% 29.74 in - NW 1.2 mph - N/A   Clear
3:00 AM 19 °F - 18 °F 92% 29.83 in 8 mi NNW 2.2 mph - -  
3:20 AM 17.6 °F - 15.8 °F 93% 29.74 in - NW 2.3 mph - N/A   Clear
3:50 AM 17.6 °F - 15.8 °F 93% 29.74 in - Calm Calm - N/A   Clear
4:20 AM 17.6 °F - 15.8 °F 93% 29.74 in - Variable 1.2 mph - N/A   Clear
4:50 AM 15.8 °F - 14.0 °F 93% 29.74 in - Variable 1.2 mph - N/A   Clear
5:00 AM 16 °F - 15 °F 91% 29.84 in 7 mi East 2.2 mph - -  
5:20 AM 15.8 °F - 12.2 °F 86% 29.74 in - NNE 1.2 mph - N/A   Clear
5:50 AM 14.0 °F - 12.2 °F 93% 29.74 in - North 2.3 mph - N/A   Clear
6:00 AM 15 °F - 13 °F 91% 29.85 in 7 mi Calm Calm - -  
6:20 AM 15.8 °F 10.2 °F 14.0 °F 93% 29.74 in 3.7 mi NNW 3.5 mph - N/A   Unknown
6:50 AM 15.8 °F - 14.0 °F 93% 29.77 in 5.0 mi Variable 2.3 mph - N/A   Unknown
7:00 AM 16 °F - 14 °F 88% 29.86 in 5 mi NE 2.2 mph - -   Scattered Clouds
7:20 AM 15.8 °F - 14.0 °F 93% 29.77 in 5.0 mi Variable 1.2 mph - N/A   Partly Cloudy
7:50 AM 17.6 °F - 15.8 °F 93% 29.77 in 5.0 mi NW 2.3 mph - N/A   Mostly Cloudy
8:00 AM 18 °F - 16 °F 89% 29.87 in 5 mi North 2.2 mph - -   Mostly Cloudy
8:20 AM 17.6 °F - 15.8 °F 93% 29.77 in 5.0 mi Variable 1.2 mph - N/A   Mostly Cloudy
8:50 AM 19.4 °F - 17.6 °F 93% 29.77 in 5.0 mi Variable 1.2 mph - N/A   Mostly Cloudy
9:00 AM 20 °F - 17 °F 81% 29.88 in 5 mi ESE 2.2 mph - -   Mostly Cloudy
9:20 AM 21.2 °F - 17.6 °F 86% 29.80 in 6.2 mi Variable 2.3 mph - N/A   Mostly Cloudy
9:50 AM 23.0 °F 18.4 °F 17.6 °F 80% 29.80 in 5.6 mi SW 3.5 mph - N/A   Mostly Cloudy
10:20 AM 24.8 °F 16.1 °F 19.4 °F 80% 29.80 in 5.6 mi West 8.1 mph - N/A   Scattered Clouds
10:50 AM 26.6 °F 21.2 °F 19.4 °F 74% 29.80 in 6.2 mi West 4.6 mph - N/A   Mostly Cloudy
11:00 AM 26 °F - 20 °F 68% 29.87 in 7 mi WNW 6.7 mph - -   Mostly Cloudy
11:20 AM 26.6 °F 20.0 °F 19.4 °F 74% 29.80 in 6.2 mi WNW 5.8 mph - N/A   Scattered Clouds
11:50 AM 28.4 °F 24.6 °F 21.2 °F 74% 29.77 in 6.2 mi Variable 3.5 mph - N/A   Scattered Clouds
12:00 PM 29 °F - 21 °F 60% 29.86 in 7 mi WNW 4.5 mph - -   Partly Cloudy
12:20 PM 30.2 °F 23.4 °F 21.2 °F 69% 29.77 in 6.2 mi NW 6.9 mph - N/A   Mostly Cloudy
12:50 PM 30.2 °F 24.3 °F 23.0 °F 75% 29.77 in 6.2 mi WNW 5.8 mph - N/A   Mostly Cloudy
1:00 PM 31 °F - 22 °F 58% 29.84 in 12 mi NW 8.9 mph - -   Mostly Cloudy
1:20 PM 30.2 °F 22.6 °F 21.2 °F 69% 29.77 in 6.2 mi NW 8.1 mph - N/A   Mostly Cloudy
1:50 PM 32.0 °F 25.6 °F 21.2 °F 64% 29.74 in 6.2 mi NW 6.9 mph - N/A   Scattered Clouds
2:00 PM 33 °F - 22 °F 51% 29.81 in 16 mi NW 11.2 mph - -   Partly Cloudy
2:20 PM 32.0 °F 24.8 °F 21.2 °F 64% 29.74 in 6.2 mi NW 8.1 mph - N/A   Scattered Clouds
2:50 PM 33.8 °F 27.7 °F 21.2 °F 60% 29.74 in 6.2 mi NW 6.9 mph - N/A   Scattered Clouds
3:00 PM 33 °F - 20 °F 46% 29.81 in 16 mi NW 11.2 mph - -   Partly Cloudy
3:20 PM 32.0 °F 26.4 °F 19.4 °F 60% 29.74 in 6.2 mi North 5.8 mph - N/A   Scattered Clouds
3:50 PM 32.0 °F 27.5 °F 19.4 °F 60% 29.74 in 6.2 mi NNW 4.6 mph - N/A   Scattered Clouds
4:20 PM 32.0 °F 28.7 °F 19.4 °F 60% 29.74 in 6.2 mi NNW 3.5 mph - N/A   Scattered Clouds
4:50 PM 32.0 °F - 19.4 °F 60% 29.77 in 6.2 mi North 2.3 mph - N/A   Scattered Clouds
5:00 PM 32 °F - 18 °F 44% 29.82 in 16 mi NNE 4.5 mph - -   Mostly Cloudy
5:20 PM 32.0 °F - 19.4 °F 60% 29.77 in 6.2 mi NW 2.3 mph - N/A   Scattered Clouds
5:50 PM 32.0 °F - 19.4 °F 60% 29.77 in 6.2 mi NW 1.2 mph - N/A   Scattered Clouds
6:00 PM 31 °F - 19 °F 49% 29.84 in 12 mi NNW 6.7 mph - -   Mostly Cloudy
6:20 PM 30.2 °F - 21.2 °F 69% 29.77 in 6.2 mi NW 2.3 mph - N/A   Scattered Clouds
6:50 PM 28.4 °F 22.2 °F 23.0 °F 80% 29.80 in 6.2 mi WNW 5.8 mph - N/A   Scattered Clouds
7:00 PM 29 °F - 23 °F 69% 29.86 in 16 mi West 6.7 mph - -   Partly Cloudy
7:20 PM 28.4 °F 24.6 °F 23.0 °F 80% 29.80 in 6.2 mi NW 3.5 mph - N/A   Partly Cloudy
7:50 PM 28.4 °F 24.6 °F 23.0 °F 80% 29.80 in 6.2 mi NW 3.5 mph - N/A   Partly Cloudy
8:00 PM 28 °F - 24 °F 77% 29.88 in 16 mi WNW 4.5 mph - -   Scattered Clouds
8:20 PM 28.4 °F - 23.0 °F 80% 29.80 in 6.2 mi North 2.3 mph - N/A   Scattered Clouds
8:50 PM 28.4 °F - 23.0 °F 80% 29.80 in 6.2 mi North 1.2 mph - N/A   Scattered Clouds
9:00 PM 28 °F - 23 °F 73% 29.89 in 12 mi NNE 4.5 mph - -   Partly Cloudy
9:20 PM 26.6 °F 22.6 °F 23.0 °F 86% 29.83 in 6.2 mi NW 3.5 mph - N/A   Scattered Clouds
9:50 PM 26.6 °F 20.0 °F 23.0 °F 86% 29.83 in 5.6 mi North 5.8 mph - N/A Snow Light Snow Showers
10:20 PM 26.6 °F 22.6 °F 23.0 °F 86% 29.83 in 6.2 mi NW 3.5 mph - N/A   Scattered Clouds
10:50 PM 24.8 °F - 23.0 °F 93% 29.83 in 6.2 mi North 1.2 mph - N/A   Partly Cloudy
11:00 PM 26 °F - 24 °F 90% 29.90 in 12 mi NNW 4.5 mph - - Snow Light Snow Showers
11:20 PM 24.8 °F - 23.0 °F 93% 29.83 in 6.2 mi NNW 2.3 mph - N/A   Partly Cloudy
11:50 PM 24.8 °F - 21.2 °F 86% 29.83 in - North 1.2 mph - N/A   Clear